Burlington, VT

7:25 AM EDT on October 18, 2017 (GMT -0400)
Burlington International

Weather History for KBTV - December, 2013

Change the Weather History Date:

Tuesday, December 10, 2013

  Actual Average Record
Temperature  
Mean Temperature 30 °F 28 °F  
Max Temperature 37 °F 35 °F 61 °F (1966)
Min Temperature 23 °F 21 °F -9 °F (1958)
Degree Days  
Heating Degree Days 35 37  
Month to date heating degree days 313 349  
Since 1 July heating degree days 1806 1894  
Cooling Degree Days 0 0  
Month to date cooling degree days 0 0  
Year to date cooling degree days 662 491  
Moisture  
Dew Point 15 °F    
Average Humidity 60    
Maximum Humidity 82    
Minimum Humidity 37    
Precipitation  
Precipitation 0.00 in 0.09 in 1.10 in (1938)
Month to date precipitation 0.50 0.87  
Year to date precipitation 42.95 35.31  
Snow  
Snow 0.00 in 0.50 in 9.40 in (2014)
Month to date snowfall 0.6 4.8  
Since 1 July snowfall 7.0 10.2  
Snow Depth T in    
Sea Level Pressure  
Sea Level Pressure 29.87 in    
Wind  
Wind Speed 11 mph (WNW)    
Max Wind Speed 20 mph    
Max Gust Speed 28 mph    
Visibility 10 miles    
Events      
T = Trace of Precipitation, MM = Missing Value Source: NWS Daily Summary

Daily Weather History Graph

Daily Weather History Graph

Search for Another Location

Airport or City:

Trip Planner

Search our weather history database for the weather conditions in past years. The results will help you decide how hot, cold, wet, or windy it might be!

Date:

Astronomy

Dec. 10, 2013 Rise Set
Actual Time 7:18 AM EST 4:12 PM EST
Civil Twilight 6:44 AM EST 4:46 PM EST
Nautical Twilight 6:08 AM EST 5:22 PM EST
Astronomical Twilight 5:32 AM EST 5:58 PM EST
Moon 12:25 PM EST (12/10) 12:19 AM EST (12/10)
Length of Visible Light 10h 01m
Length of Day
8h 54m
First Quarter, 61% of the Moon is Illuminated
Dec 10
First Quarter
Dec 17
Full
Dec 25
Last Quarter
Jan 1
New
Jan 7
First Quarter

Hourly Weather History & Observations

Time (EST) Temp. Windchill Dew Point Humidity Pressure Visibility Wind Dir Wind Speed Gust Speed Precip Events Conditions
12:54 AM 35.1 °F 28.6 °F 30.0 °F 82% 29.86 in 10.0 mi South 8.1 mph - N/A   Overcast
1:54 AM 35.1 °F 30.1 °F 28.9 °F 78% 29.84 in 10.0 mi South 5.8 mph - N/A   Overcast
2:54 AM 36.0 °F 28.5 °F 27.0 °F 70% 29.85 in 10.0 mi SW 10.4 mph - N/A   Overcast
3:54 AM 36.0 °F 28.5 °F 21.0 °F 55% 29.86 in 10.0 mi WSW 10.4 mph 21.9 mph N/A   Overcast
4:54 AM 36.0 °F 28.5 °F 19.0 °F 50% 29.87 in 10.0 mi West 10.4 mph 20.7 mph N/A   Overcast
5:54 AM 35.1 °F 27.9 °F 18.0 °F 50% 29.89 in 10.0 mi WSW 9.2 mph - N/A   Overcast
6:54 AM 34.0 °F 25.5 °F 19.0 °F 54% 29.88 in 10.0 mi WNW 11.5 mph - N/A   Overcast
7:54 AM 32.0 °F 21.2 °F 18.0 °F 56% 29.89 in 10.0 mi WNW 16.1 mph 21.9 mph N/A   Mostly Cloudy
8:54 AM 30.9 °F 21.7 °F 17.1 °F 57% 29.88 in 10.0 mi NW 11.5 mph - N/A   Overcast
9:54 AM 30.0 °F 20.5 °F 16.0 °F 56% 29.90 in 10.0 mi NNW 11.5 mph - N/A   Overcast
10:54 AM 30.0 °F 20.0 °F 15.1 °F 54% 29.86 in 10.0 mi NW 12.7 mph - N/A   Overcast
11:54 AM 28.9 °F 17.7 °F 15.1 °F 56% 29.83 in 10.0 mi NNW 15.0 mph - N/A   Overcast
12:54 PM 28.9 °F 19.2 °F 15.1 °F 56% 29.82 in 10.0 mi NNW 11.5 mph - N/A   Overcast
1:54 PM 28.0 °F 20.8 °F 14.0 °F 56% 29.81 in 10.0 mi NW 6.9 mph - N/A   Mostly Cloudy
2:54 PM 28.9 °F 18.2 °F 9.0 °F 43% 29.80 in 10.0 mi West 13.8 mph 24.2 mph N/A   Scattered Clouds
3:54 PM 28.0 °F 18.1 °F 10.0 °F 47% 29.81 in 10.0 mi WNW 11.5 mph - N/A   Scattered Clouds
4:54 PM 27.0 °F 17.3 °F 9.0 °F 47% 29.84 in 10.0 mi WNW 10.4 mph - N/A   Mostly Cloudy
5:54 PM 26.1 °F 16.2 °F 3.9 °F 39% 29.87 in 10.0 mi West 10.4 mph - N/A   Scattered Clouds
6:54 PM 26.1 °F 15.6 °F 5.0 °F 41% 29.88 in 10.0 mi West 11.5 mph 21.9 mph N/A   Mostly Cloudy
7:54 PM 25.0 °F 13.6 °F 6.1 °F 45% 29.88 in 10.0 mi WNW 12.7 mph 20.7 mph N/A   Overcast
8:54 PM 24.1 °F 13.7 °F 8.1 °F 51% 29.90 in 10.0 mi NW 10.4 mph - N/A   Overcast
9:54 PM 24.1 °F 15.2 °F 9.0 °F 53% 29.91 in 10.0 mi NW 8.1 mph - N/A   Overcast
10:54 PM 23.0 °F 12.4 °F 6.1 °F 48% 29.93 in 10.0 mi WNW 10.4 mph - N/A   Partly Cloudy
11:54 PM 23.0 °F 11.1 °F 5.0 °F 46% 29.95 in 10.0 mi WNW 12.7 mph 18.4 mph N/A   Clear